Погода в Даде

Россия / Хабаровский край     49°10′08″N   136°28′16″E
темп.,
°C
ветер,
м/с
пор.,
м/с
влажн.,
%
обл.,
%
осадки,
мм/ч
давл.,
гПа
погр.,
м
15 апреля, чт
чт1501:00−10ююз249497 0.0 100656
04:00−9ююз39925 0.0 1006156
07:00−10ююз269524 0.0 1009128
10:00−2юз586912 0.0 10101136
13:00+1зюз59603 0.0 10101404
16:00+3зюз410545 0.0 10111472
19:00+1ю35745 0.0 101379
22:00−4ю22825 0.0 101528
16 апреля, пт
пт1601:00−4юв22838 0.0 101634
04:00−6в229082 0.0 101625
07:00−3св238170 0.0 101666
10:00+5св235899 0.0 1016299
13:00+9ссв0353100 0.0 1015635
16:00+8с2268100 0.0 101391
19:00+6ссв4884100 0.0 1012120
22:00+4всв2592100 0.1 101276
17 апреля, сб
сб1701:00+3всв1193100 0.0 101120
04:00+1св2494100 0.0 101154
07:00+1ссв2494100 0.0 101078
10:00+5юв2479100 0.0 1011528
13:00+5ю3491100 0.2 1012505
16:00+4ю369598 0.3 1013425
19:00+4ююв239189 0.0 1014143
22:00+4юв229229 0.0 101525
18 апреля, вс
вс1801:00+1св22960 0.0 101416
04:000св239833 0.0 101355
07:00+1св249774 0.0 1013134
10:00+6ссв357822 0.0 1012366
13:00+9ссв34620 0.0 1011691
16:00+11ссв45531 0.0 1008943
19:00+9ссв49630 0.0 1008219
22:00+7ссв513724 0.0 1008261
19 апреля, пн
пн1901:00+5ссв513847 0.0 1007269
04:00+4ссв61485100 0.0 1007321
07:00+3ссв7168582 0.0 1008448
10:00+7ссв8156689 0.0 1007663
13:00+9ссв91557100 0.0 1007945
16:00+9ссв81655100 0.0 10051126
19:00+7ссв61463100 0.0 10061184
22:00+5ссв71569100 0.0 1006873